Lake Charles, LA

7:54 AM CST on February 26, 2017 (GMT -0600)
Chennault International

Weather History for KCWF - September, 2013

Change the Weather History Date:

Friday, September 20, 2013

  Actual Average Record
Temperature  
Mean Temperature 78 °F -  
Max Temperature 80 °F 85 °F 107 °F (2005)
Min Temperature 75 °F 69 °F 46 °F (2008)
Cooling Degree Days 12    
Growing Degree Days 28 (Base 50)    
Moisture  
Dew Point 77 °F    
Average Humidity 100    
Maximum Humidity 100    
Minimum Humidity 100    
Precipitation  
Precipitation 1.54 in - - ()
Sea Level Pressure  
Sea Level Pressure 29.87 in    
Wind  
Wind Speed 5 mph (ESE)    
Max Wind Speed 21 mph    
Max Gust Speed 20 mph    
Visibility 7 miles    
Events Rain , Thunderstorm    
Averages and records for this station are not official NWS values.
T = Trace of Precipitation, MM = Missing Value Source: NWS Daily Summary

Daily Weather History Graph

Daily Weather History Graph

Search for Another Location

Airport or City:

Trip Planner

Search our weather history database for the weather conditions in past years. The results will help you decide how hot, cold, wet, or windy it might be!

Date:

Astronomy

Sep. 20, 2013 Rise Set
Actual Time 6:59 AM CDT 7:11 PM CDT
Civil Twilight 6:35 AM CDT 7:35 PM CDT
Nautical Twilight 6:08 AM CDT 8:03 PM CDT
Astronomical Twilight 5:39 AM CDT 8:31 PM CDT
Moon 7:55 PM CDT (9/20) 8:06 AM CDT (9/20)
Length of Visible Light 12h 59m
Length of Day
12h 11m
Full, 98% of the Moon is Illuminated
Sep 20
Full
Sep 26
Last Quarter
Oct 4
New
Oct 11
First Quarter
Oct 18
Full

Hourly Weather History & Observations

Time (CDT) Temp. Heat Index Dew Point Humidity Pressure Visibility Wind Dir Wind Speed Gust Speed Precip Events Conditions
12:15 AM 77.5 °F - 77.5 °F 100% 29.94 in 10.0 mi East 6.9 mph - N/A   Scattered Clouds
12:35 AM 77.5 °F - 77.5 °F 100% 29.94 in 10.0 mi ESE 4.6 mph - N/A   Clear
12:55 AM 77.2 °F - 77.2 °F 100% 29.94 in 10.0 mi ESE 3.5 mph - N/A   Mostly Cloudy
1:15 AM 77.0 °F - 77.0 °F 100% 29.94 in 10.0 mi East 3.5 mph - N/A Rain , Thunderstorm Light Thunderstorms and Rain
1:35 AM 77.5 °F - 77.5 °F 100% 29.95 in 1.5 mi SSW 5.8 mph - 0.22 in Rain , Thunderstorm Heavy Thunderstorms and Rain
1:55 AM 76.1 °F - 76.1 °F 100% 29.94 in 2.0 mi East 3.5 mph - 0.44 in Rain Rain
2:15 AM 76.1 °F - 76.1 °F 100% 29.94 in 10.0 mi SE 3.5 mph - 0.02 in Rain , Thunderstorm Light Thunderstorms and Rain
2:35 AM 76.5 °F - 76.5 °F 100% 29.93 in 3.0 mi Calm Calm - 0.07 in Rain Light Rain
2:55 AM 77.0 °F - 77.0 °F 100% 29.93 in 10.0 mi Calm Calm - 0.07 in Rain , Thunderstorm Light Thunderstorms and Rain
3:15 AM 77.0 °F - 77.0 °F 100% 29.92 in 10.0 mi ENE 3.5 mph - 0.01 in Rain Light Rain
3:35 AM 76.6 °F - 76.6 °F 100% 29.91 in 10.0 mi East 5.8 mph - 0.02 in Rain , Thunderstorm Light Thunderstorms and Rain
3:55 AM 76.6 °F - 76.6 °F 100% 29.91 in 10.0 mi East 5.8 mph - 0.02 in Rain , Thunderstorm Light Thunderstorms and Rain
4:15 AM 76.6 °F - 76.6 °F 100% 29.91 in 10.0 mi East 4.6 mph - 0.01 in Rain , Thunderstorm Light Thunderstorms and Rain
4:35 AM 76.5 °F - 76.5 °F 100% 29.91 in 3.0 mi Calm Calm - 0.07 in Rain , Thunderstorm Thunderstorms and Rain
4:55 AM 76.3 °F - 76.3 °F 100% 29.91 in 1.5 mi ENE 6.9 mph - 0.24 in Rain , Thunderstorm Heavy Thunderstorms and Rain
5:15 AM 76.1 °F - 76.1 °F 100% 29.91 in 2.0 mi Calm Calm - 0.15 in Rain , Thunderstorm Heavy Thunderstorms and Rain
5:35 AM 75.4 °F - 75.4 °F 100% 29.90 in 4.0 mi East 5.8 mph 19.6 mph 0.44 in Rain , Thunderstorm Rain
5:55 AM 75.7 °F - 75.7 °F 100% 29.90 in 10.0 mi East 3.5 mph - 0.46 in Rain , Thunderstorm Light Thunderstorms and Rain
6:15 AM 75.6 °F - 75.6 °F 100% 29.90 in 10.0 mi Calm Calm - 0.01 in Rain , Thunderstorm Light Thunderstorms and Rain
6:35 AM 75.9 °F - 75.9 °F 100% 29.90 in 5.0 mi Calm Calm - 0.04 in Rain , Thunderstorm Heavy Thunderstorms and Rain
6:50 AM 75.2 °F - 75.2 °F 100% 29.90 in 7.0 mi East 3.5 mph - N/A Thunderstorm Thunderstorm
6:55 AM 76.1 °F - 76.1 °F 100% 29.92 in 3.0 mi SSW 6.9 mph - 0.13 in Rain , Thunderstorm Heavy Thunderstorms and Rain
7:58 AM 75.2 °F - 75.2 °F 100% 29.92 in 4.0 mi East 4.6 mph - N/A Rain , Thunderstorm Light Thunderstorms and Rain
8:50 AM 77.0 °F - 77.0 °F 100% 29.91 in 5.0 mi Calm Calm - N/A Rain , Thunderstorm Light Thunderstorms and Rain
10:58 AM 80.6 °F 89.3 °F 80.6 °F 100% 29.89 in 4.0 mi SE 8.1 mph - N/A Rain , Thunderstorm Light Thunderstorms and Rain
12:21 PM 80.6 °F 89.3 °F 80.6 °F 100% 29.87 in 5.0 mi SSE 8.1 mph - N/A Rain Light Rain
12:47 PM 80.6 °F 89.3 °F 80.6 °F 100% 29.87 in 2.0 mi SSE 8.1 mph - N/A Rain , Thunderstorm Thunderstorms and Rain
12:58 PM 80.6 °F 89.3 °F 80.6 °F 100% 29.87 in 6.0 mi SE 8.1 mph - N/A   Scattered Clouds
1:58 PM 77.0 °F - 77.0 °F 100% 29.84 in 6.0 mi SSE 8.1 mph - N/A   Mostly Cloudy
2:55 PM 78.8 °F - 78.8 °F 100% 29.84 in 5.0 mi SE 4.6 mph - N/A   Mostly Cloudy
3:50 PM 80.6 °F 89.3 °F 80.6 °F 100% 29.80 in 4.0 mi SSE 20.7 mph 256.6 mph N/A Rain Heavy Rain
4:05 PM 78.8 °F - 78.8 °F 100% 29.80 in 7.0 mi SSE 6.9 mph - N/A Rain , Thunderstorm Thunderstorms and Rain
4:54 PM 78.8 °F - 78.8 °F 100% 29.81 in 5.0 mi SW 4.6 mph - N/A Rain , Thunderstorm Light Thunderstorms and Rain
5:49 PM 78.8 °F - 78.8 °F 100% 29.79 in 5.0 mi SSE 6.9 mph - N/A Rain , Thunderstorm Heavy Thunderstorms and Rain
6:50 PM 78.8 °F - 78.8 °F 100% 29.79 in 7.0 mi SE 8.1 mph - N/A Rain Light Rain
7:50 PM 78.8 °F - 78.8 °F 100% 29.78 in 7.0 mi SE 8.1 mph - N/A Rain Light Rain
8:50 PM 78.8 °F - 78.8 °F 100% 29.77 in 5.0 mi SSE 5.8 mph - N/A Rain Light Rain
9:50 PM 78.8 °F - 78.8 °F 100% 29.78 in 7.0 mi Calm Calm - N/A Rain Light Rain
10:55 PM 77.4 °F - 77.4 °F 100% 29.79 in 10.0 mi NNW 12.7 mph - 0.17 in Thunderstorm Thunderstorm
11:15 PM 76.5 °F - 76.5 °F 100% 29.79 in 10.0 mi NNE 4.6 mph - N/A Thunderstorm Thunderstorm
11:35 PM 77.0 °F - 77.0 °F 100% 29.78 in 10.0 mi North 6.9 mph - N/A Rain , Thunderstorm Light Thunderstorms and Rain
11:55 PM 75.9 °F - 75.9 °F 100% 29.78 in 10.0 mi North 8.1 mph - 0.01 in Rain , Thunderstorm Light Thunderstorms and Rain